Shenandoah, IA

7:17 PM CDT on September 26, 2016 (GMT -0500)
Shenandoah Municipal

Weather History for KSDA - December, 2012

Change the Weather History Date:

Friday, December 14, 2012

  Actual Average Record
Temperature  
Mean Temperature 40 °F -  
Max Temperature 57 °F 37 °F 60 °F (1975)
Min Temperature 24 °F 18 °F -19 °F (1985)
Degree Days  
Heating Degree Days 24    
Moisture  
Dew Point 29 °F    
Average Humidity 56    
Maximum Humidity 76    
Minimum Humidity 35    
Precipitation  
Precipitation 0.05 in - - ()
Sea Level Pressure  
Sea Level Pressure 29.91 in    
Wind  
Wind Speed 6 mph (SSE)    
Max Wind Speed 21 mph    
Max Gust Speed 26 mph    
Visibility 10 miles    
Events Rain    
Averages and records for this station are not official NWS values.
T = Trace of Precipitation, MM = Missing Value Source: NWS Daily Summary

Daily Weather History Graph

Daily Weather History Graph

Search for Another Location

Airport or City:

Trip Planner

Search our weather history database for the weather conditions in past years. The results will help you decide how hot, cold, wet, or windy it might be!

Date:

Astronomy

Dec. 14, 2012 Rise Set
Actual Time 7:38 AM CST 4:54 PM CST
Civil Twilight 7:07 AM CST 5:25 PM CST
Nautical Twilight 6:32 AM CST 6:00 PM CST
Astronomical Twilight 5:59 AM CST 6:33 PM CST
Moon 8:43 AM CST (12/14) 6:49 PM CST (12/14)
Length of Visible Light 10h 18m
Length of Day
9h 16m
Waxing Crescent, 3% of the Moon is Illuminated
Dec 14
Waxing Crescent
Dec 19
First Quarter
Dec 28
Full
Jan 4
Last Quarter
Jan 11
New

Hourly Weather History & Observations

Time (CST) Temp. Windchill Dew Point Humidity Pressure Visibility Wind Dir Wind Speed Gust Speed Precip Events Conditions
12:15 AM 28.4 °F - 19.4 °F 69% 30.07 in 10.0 mi Calm Calm - N/A   Scattered Clouds
12:35 AM 28.4 °F - 19.4 °F 69% 30.07 in 10.0 mi Calm Calm - N/A   Scattered Clouds
12:55 AM 28.4 °F 24.6 °F 19.4 °F 69% 30.06 in 10.0 mi NNE 3.5 mph - N/A   Scattered Clouds
1:15 AM 26.6 °F 22.6 °F 19.4 °F 74% 30.05 in 10.0 mi NNE 3.5 mph - N/A   Scattered Clouds
1:35 AM 28.4 °F 24.6 °F 19.4 °F 69% 30.06 in 10.0 mi NE 3.5 mph - N/A   Scattered Clouds
1:55 AM 28.4 °F 23.3 °F 19.4 °F 69% 30.06 in 10.0 mi NE 4.6 mph - N/A   Scattered Clouds
2:15 AM 26.6 °F 22.6 °F 17.6 °F 69% 30.05 in 10.0 mi ENE 3.5 mph - N/A   Clear
2:35 AM 24.8 °F 17.9 °F 17.6 °F 74% 30.05 in 10.0 mi NE 5.8 mph - N/A   Scattered Clouds
2:55 AM 26.6 °F 21.2 °F 19.4 °F 74% 30.05 in 10.0 mi NE 4.6 mph - N/A   Scattered Clouds
3:15 AM 26.6 °F - 19.4 °F 74% 30.05 in 10.0 mi Calm Calm - N/A   Clear
3:35 AM 26.6 °F - 17.6 °F 69% 30.04 in 10.0 mi Calm Calm - N/A   Scattered Clouds
3:55 AM 28.4 °F - 19.4 °F 69% 30.03 in 10.0 mi Calm Calm - N/A   Scattered Clouds
4:15 AM 28.4 °F 24.6 °F 19.4 °F 69% 30.02 in 10.0 mi NE 3.5 mph - N/A   Scattered Clouds
4:55 AM 26.6 °F - 19.4 °F 74% 30.02 in 10.0 mi Calm Calm - N/A   Scattered Clouds
5:15 AM 30.2 °F - 21.2 °F 69% 30.02 in 10.0 mi Calm Calm - N/A   Scattered Clouds
5:35 AM 32.0 °F - 21.2 °F 64% 30.02 in 10.0 mi Calm Calm - N/A   Scattered Clouds
5:55 AM 28.4 °F - 19.4 °F 69% 30.02 in 10.0 mi Calm Calm - N/A   Scattered Clouds
6:15 AM 30.2 °F - 21.2 °F 69% 30.03 in 10.0 mi Calm Calm - N/A   Scattered Clouds
6:35 AM 35.6 °F 32.8 °F 24.8 °F 65% 30.02 in 10.0 mi SSE 3.5 mph - N/A   Scattered Clouds
6:55 AM 33.8 °F 27.7 °F 23.0 °F 65% 30.01 in 10.0 mi SSE 6.9 mph - N/A   Scattered Clouds
7:15 AM 33.8 °F 29.6 °F 24.8 °F 70% 30.02 in 10.0 mi SE 4.6 mph - N/A   Scattered Clouds
7:35 AM 33.8 °F 30.8 °F 24.8 °F 70% 30.02 in 10.0 mi SSE 3.5 mph - N/A   Scattered Clouds
7:55 AM 35.6 °F 32.8 °F 24.8 °F 65% 30.01 in 10.0 mi SSE 3.5 mph - N/A   Scattered Clouds
8:15 AM 35.6 °F 32.8 °F 24.8 °F 65% 30.00 in 10.0 mi SSE 3.5 mph - N/A   Scattered Clouds
8:35 AM 37.4 °F 32.8 °F 24.8 °F 60% 30.00 in 10.0 mi SSE 5.8 mph - N/A   Clear
8:55 AM 39.2 °F 35.9 °F 26.6 °F 61% 30.00 in 10.0 mi South 4.6 mph - N/A   Clear
9:15 AM 41.0 °F 36.4 °F 26.6 °F 57% 30.00 in 10.0 mi South 6.9 mph - N/A   Clear
9:35 AM 42.8 °F 38.6 °F 26.6 °F 53% 29.99 in 10.0 mi South 6.9 mph - N/A   Clear
9:55 AM 44.6 °F 40.2 °F 26.6 °F 49% 29.99 in 10.0 mi South 8.1 mph - N/A   Clear
10:15 AM 46.4 °F 41.5 °F 26.6 °F 46% 29.99 in 10.0 mi South 10.4 mph - N/A   Clear
10:35 AM 48.2 °F - 26.6 °F 43% 29.99 in 10.0 mi South 12.7 mph - N/A   Clear
10:55 AM 48.2 °F - 26.6 °F 43% 29.98 in 10.0 mi South 9.2 mph - N/A   Clear
11:15 AM 51.8 °F - 26.6 °F 38% 29.96 in 10.0 mi South 9.2 mph - N/A   Clear
11:35 AM 53.6 °F - 26.6 °F 35% 29.95 in 10.0 mi South 10.4 mph - N/A   Clear
11:55 AM 53.6 °F - 26.6 °F 35% 29.94 in 10.0 mi South 12.7 mph - N/A   Clear
12:15 PM 55.4 °F - 28.4 °F 36% 29.93 in 10.0 mi South 9.2 mph - N/A   Clear
12:35 PM 55.4 °F - 28.4 °F 36% 29.92 in 10.0 mi South 12.7 mph - N/A   Clear
12:55 PM 55.4 °F - 28.4 °F 36% 29.91 in 10.0 mi South 16.1 mph - N/A   Scattered Clouds
1:15 PM 57.2 °F - 30.2 °F 36% 29.88 in 10.0 mi SSE 11.5 mph - N/A   Clear
1:35 PM 57.2 °F - 32.0 °F 38% 29.87 in 10.0 mi South 11.5 mph - N/A   Clear
1:55 PM 57.2 °F - 35.6 °F 44% 29.86 in 10.0 mi SSE 13.8 mph - N/A   Clear
2:15 PM 57.2 °F - 33.8 °F 41% 29.85 in 10.0 mi South 13.8 mph 19.6 mph N/A   Clear
2:35 PM 57.2 °F - 35.6 °F 44% 29.84 in 10.0 mi South 19.6 mph - N/A   Clear
2:55 PM 57.2 °F - 35.6 °F 44% 29.84 in 10.0 mi South 16.1 mph 20.7 mph N/A   Scattered Clouds
3:15 PM 57.2 °F - 33.8 °F 41% 29.84 in 10.0 mi South 17.3 mph - N/A   Mostly Cloudy
3:35 PM 57.2 °F - 33.8 °F 41% 29.83 in 10.0 mi South 15.0 mph - N/A   Overcast
3:55 PM 55.4 °F - 33.8 °F 44% 29.83 in 10.0 mi SSE 13.8 mph 18.4 mph N/A   Overcast
4:15 PM 55.4 °F - 32.0 °F 41% 29.83 in 10.0 mi SSE 15.0 mph 21.9 mph N/A   Overcast
4:35 PM 55.4 °F - 32.0 °F 41% 29.83 in 10.0 mi SSE 15.0 mph - N/A   Overcast
4:55 PM 53.6 °F - 30.2 °F 41% 29.82 in 10.0 mi SSE 15.0 mph 20.7 mph N/A   Overcast
5:15 PM 53.6 °F - 32.0 °F 44% 29.81 in 10.0 mi SSE 15.0 mph 19.6 mph N/A   Overcast
5:35 PM 53.6 °F - 32.0 °F 44% 29.81 in 10.0 mi SSE 13.8 mph - N/A   Mostly Cloudy
5:55 PM 53.6 °F - 33.8 °F 47% 29.81 in 10.0 mi SSE 12.7 mph 18.4 mph N/A   Overcast
6:15 PM 53.6 °F - 35.6 °F 51% 29.81 in 10.0 mi SSE 13.8 mph - N/A   Scattered Clouds
6:35 PM 51.8 °F - 35.6 °F 54% 29.81 in 10.0 mi SSE 12.7 mph - N/A   Mostly Cloudy
6:55 PM 51.8 °F - 35.6 °F 54% 29.81 in 10.0 mi SSE 13.8 mph - N/A   Overcast
7:15 PM 53.6 °F - 35.6 °F 51% 29.80 in 10.0 mi SSE 13.8 mph - N/A   Overcast
7:35 PM 53.6 °F - 35.6 °F 51% 29.79 in 10.0 mi SSE 16.1 mph - N/A   Overcast
7:55 PM 51.8 °F - 33.8 °F 50% 29.80 in 10.0 mi SSE 19.6 mph 23.0 mph N/A   Overcast
8:15 PM 51.8 °F - 37.4 °F 58% 29.79 in 10.0 mi SSE 15.0 mph 23.0 mph N/A   Overcast
8:35 PM 51.8 °F - 39.2 °F 62% 29.78 in 10.0 mi SSE 16.1 mph 21.9 mph N/A   Overcast
8:55 PM 51.8 °F - 39.2 °F 62% 29.77 in 10.0 mi SSE 11.5 mph - N/A Rain Light Rain
9:15 PM 51.8 °F - 39.2 °F 62% 29.75 in 10.0 mi SE 9.2 mph - N/A   Overcast
9:35 PM 51.8 °F - 39.2 °F 62% 29.73 in 10.0 mi SE 9.2 mph - N/A   Overcast
9:55 PM 51.8 °F - 39.2 °F 62% 29.71 in 10.0 mi SE 11.5 mph - N/A   Overcast
10:15 PM 51.8 °F - 39.2 °F 62% 29.70 in 10.0 mi SE 10.4 mph - N/A   Overcast
10:35 PM 51.8 °F - 37.4 °F 58% 29.69 in 10.0 mi SE 12.7 mph 18.4 mph N/A   Overcast
10:55 PM 50.0 °F - 39.2 °F 66% 29.66 in 10.0 mi SE 12.7 mph - N/A   Drizzle
11:15 PM 48.2 °F - 39.2 °F 71% 29.66 in 10.0 mi SE 11.5 mph - N/A Rain Rain
11:35 PM 48.2 °F - 39.2 °F 71% 29.66 in 7.0 mi SSE 20.7 mph 26.5 mph N/A Rain Light Rain
11:55 PM 46.4 °F 39.2 °F 39.2 °F 76% 29.66 in 5.0 mi SSE 18.4 mph 25.3 mph 0.05 in Rain Rain